www.pogodaiklimat.ru
ПОГОДА в Камарило
Время
и дата
09:58 04.12
10:12 04.12
10:55 04.12
11:10 04.12
11:17 04.12
11:23 04.12
11:30 04.12
11:42 04.12
11:50 04.12
11:53 04.12
11:55 04.12
12:00 04.12
12:04 04.12
12:23 04.12
12:35 04.12
12:42 04.12
12:55 04.12
13:02 04.12
13:14 04.12
13:55 04.12
14:02 04.12
14:48 04.12
14:55 04.12
15:21 04.12
15:50 04.12
15:55 04.12
16:02 04.12
16:05 04.12
16:16 04.12
16:25 04.12
16:55 04.12
17:02 04.12
17:55 04.12
18:55 04.12
19:22 04.12
19:47 04.12
19:55 04.12
20:14 04.12
20:55 04.12
21:09 04.12
21:55 04.12
22:31 04.12
22:38 04.12
22:55 04.12
23:12 04.12
23:30 04.12
23:55 04.12
00:55 05.12
Ветер
(напр.,м/с)
Видим. Явления Облачность Т
(С)
Тd
(С)
f
(%)
Тe
(С)
Тes
(С)
Комфортность P
(гПа)
Po
(гПа)
Тmin
(С)
Tmax
(С)
R
(мм)
R24
(мм)
S
(см)
СВ 2 2 км слабый дождь, дымка 10/10 180 m
[Ns]
+15.0 +13.9 93 +15 +15 1017.8
СВ 2 3 км слабый дождь, дымка 10/10 180 m
[Ns]
+15.0 +13.9 93 +15 +15 1017.8
штиль 0 4 км слабый дождь, дымка 10/10 450 m
[Ns]
+15.0 +13.9 93 +15 +15 1021.0 1017.4
СВ 2 6 км дымка 10/10 450 м +15.6 +14.4 93 +15 +15 1017.1
штиль 0 5 км дымка 10/10 390 м +15.6 +13.9 90 +15 +15 1017.1
штиль 0 3 км дымка 10/10 390 м +15.0 +13.9 93 +15 +15 1017.1
штиль 0 2 км слабый дождь, дымка 10/10 300 m
[Ns]
+15.0 +14.4 96 +15 +15 1017.1
штиль 0 2 км слабый дождь, дымка 10/10 270 m
[Ns]
+15.6 +14.4 93 +15 +15 1016.7
штиль 0 2 км слабый дождь, дымка 10/10 330 m
[Ns]
+16.0 +14.0 88 +16 +16 1016.7
штиль 0 3 км дымка 10/10 210 м +16.0 +14.0 88 +16 +16 1016.7
штиль 0 3 км дымка 10/10 270 м +15.6 +14.4 93 +15 +15 1020.2 1016.4
штиль 0 4 км дымка 10/10 180 м +15.6 +14.4 93 +15 +15 1016.4
штиль 0 6 км дымка 10/10 180 м +15.6 +14.4 93 +15 +15 1016.4
штиль 0 16 км 10/10 180 м +15.6 +14.4 93 +15 +15 1016.1
штиль 0 16 км 10/10 210 м +16.1 +14.4 90 +16 +16 1016.1
штиль 0 16 км 10/10 180 м +16.1 +14.4 90 +16 +16 1016.1
В 2 16 км 10/10 180 м +16.1 +14.4 90 +16 +16 1019.7 1016.1 0.8
В 2 8 км дымка 10/10 210 м +15.6 +14.4 93 +15 +15 1016.1
штиль 0 11 км 10/10 270 м +15.6 +14.4 93 +15 +15 1015.7
ЮВ 2 16 км 10/10 210 м +16.1 +15.0 93 +16 +16 1019.1 1015.4
ЮВ 2 16 км 10/10 360 м +16.1 +14.4 90 +16 +16 1015.4
штиль 0 16 км 10/10 450 м +16.7 +14.4 86 +17 +17 1015.1
штиль 0 16 км 10/10 450 м +16.7 +14.4 86 +17 +17 1018.4 1014.7
штиль 0 16 км 10/10 420 м +16.7 +14.4 86 +17 +17 1014.7
З 3 16 км 10/10 390 м +16.0 +15.0 94 +15 +15 1015.1
З 3 16 км 10/10 270 м +16.1 +15.0 93 +16 +16 1018.6 1015.1 +15.0 +17.2 0.8
З 2 8 км дымка 10/10 390 м +16.1 +15.0 93 +16 +16 1015.1
З 2 6 км дымка 10/10 240 м +16.1 +15.0 93 +16 +16 1015.1
ЮЗ 2 3 км слабый дождь, дымка 10/10 240 m
[Ns]
+15.6 +15.0 96 +15 +15 1015.1
штиль 0 5 км слабый дождь, дымка 10/10 240 m
[Ns]
+15.6 +15.0 96 +15 +15 1014.7
штиль 0 16 км 10/10 240 м +15.6 +15.0 96 +15 +15 1018.5 1014.7
штиль 0 16 км 10/10 480 м +15.6 +15.0 96 +15 +15 1015.1
ЮЗ 2 16 км 10/10 540 м +15.0 +15.0 100 +15 +15 1018.8 1015.1
штиль 0 16 км 10/10 540 м +15.0 +15.0 100 +15 +15 1018.9 1015.4 0.3
З 2 16 км 10/10 420 м +15.0 +15.0 100 +15 +15 1015.4
З 2 16 км 10/10 420 м +15.0 +14.4 96 +15 +15 1015.4
З 2 14 км 10/8 420 m
[Ac]
+15.0 +14.4 96 +15 +15 1019.1 1015.4
штиль 0 14 км 10/8 120 m
[Ac]
+15.0 +14.4 96 +15 +15 1015.4
штиль 0 16 км 10/10 210 м +15.0 +14.4 96 +15 +15 1019.2 1015.7
штиль 0 14 км 10/10 210 м +15.0 +14.4 96 +15 +15 1015.4
штиль 0 16 км 10/10 360 м +14.4 +14.4 100 +14 +14 1019.1 1015.4 +14.4 +15.6 0.3
штиль 0 16 км 10/10 630 м +14.4 +14.4 100 +14 +14 1015.4
штиль 0 16 км 10/10 690 м +14.4 +13.9 97 +14 +14 1015.4
штиль 0 16 км 10/10 300 м +14.4 +13.9 97 +14 +14 1019.1 1015.4
штиль 0 14 км 10/10 270 м +14.4 +13.9 97 +14 +14 1015.4
ЮЗ 2 16 км 10/10 480 м +13.9 +13.9 100 +13 +13 1015.4
штиль 0 16 км 10/10 360 м +13.9 +13.3 96 +13 +13 1018.8 1015.1
штиль 0 14 км 8/8 1800 м +13.3 +12.8 97 +13 +13 1018.3 1014.7
Местоположение метеостанции Camarillo Airport: широта 34.2167 долгота -119.0833 высота над уровнем моря 23 м.
В архиве по умолчанию представлена погода в Камарило за последние 1-2 суток. Обновление информации о фактической погоде в базе происходит ежечасно! Архивные данные за месяц целиком и за предыдущие месяцы Вы можете получить, выбрав интересующий диапазон дат из раскрывающегося списка и нажав кнопку "Ввод!".
Внимание! Архив погоды МЕТАР в базе сайта по станциям, не включенным в климатический монитор, хранится не более 60 дней. Нет смысла пытаться выбрать более раннюю дату.
*Определитесь, кто Вы:
Внимание! Время в таблицах - местное (без учета летнего времени). Для получения всемирного времени необходимо вычесть поправку, которая равна -8 ч.
Смотрите также архив погоды в соседних городах и на ближайших метеорологических станциях:
Партнеры нашего сайта:      
Пояснения к столбцам:
  • Ветер - указаны скорость ветра в м/с - средняя за 10 мин, порывы в срок и между сроками (в фигурных скобках) и направление, откуда дует ветер: С - северный,
  • СВ - северо-восточный, В - восточный, ЮВ - юго-восточный, Ю - южный, ЮЗ - юго-западный, З - западный, СЗ - северо-западный.
  • Видимость - горизонтальная дальность видимости в метрах или километрах. При видимости от 1 до 10 км при отсутствии осадков обычно наблюдается дымка, при ухудшении видимости до 1 км и менее - туман. В сухую погоду видимость может ухудшаться дымом, пылью или мглою.
  • Явления - указаны атмосферные явления, наблюдавшиеся в срок или в последний час перед сроком; фигурными скобками обозначены явления, наблюдавшиеся между сроками (за 1-3 часа до срока); квадратными скобками обозначены град или гололедные отложения с указанием их диаметра в мм.
  • Облачность - указаны через наклонную черту общая и нижняя облачность в баллах и высота нижней границы облаков в метрах; квадратными скобками обозначены формы облаков: Ci - перистые, Cs - перисто-слоистые, Cc - перисто-кучевые, Ac - высококучевые, As - высокослоистые, Sc - слоисто-кучевые, Ns - слоисто-дождевые, Cu - кучевые, Cb - кучево-дождевые. Подробнее классификацию облаков см. в Атласе облаков (PDF).
  • T - Температура воздуха - температура, измеренная на высоте 2 м над землей.
  • Td - Температура точки росы - температура, при понижении до которой содержащийся в воздухе водяной пар достигнет насыщения.
  • f - Относительная влажность воздуха - влажноcть воздуха, измеренная на высоте 2 м над землей.
  • Te - Эффективная температура - температура, которую ощущает одетый по сезону человек в тени. Характеристика душности погоды. При расчете учитывается влияние влажности воздуха и скорости ветра на теплоощущения человека.
  • Tes - Эффективная температура на солнце - температура, которую ощущает человек, с поправкой на солнечный нагрев. Характеристика знойности погоды. Зависит от высоты солнца над горизонтом, облачности и скорости ветра. Ночью, в пасмурную погоду, а также при ветре 12 м/с и более поправка равна нулю.
  • P - Атмосферное давление - приведенное к уровню моря атмосферное давление.
  • Po - Атмосферное давление - измеренное на уровне метеостанции атмосферное давление.
  • Tmin - Минимальная температура - минимум температуры воздуха на высоте 2 м над землей.
  • Tmax - Максимальная температура - максимум температуры воздуха на высоте 2 м над землей.
  • R - Количество осадков - Количество выпавших осадков за период времени, мм. При наведении курсора мыши на число - период времени, за который выпало указанное количество осадков.
  • R24 - Количество осадков - Количество выпавших осадков за 24 часа, мм.
  • S - Снежный покров - Высота снежного покрова, см. При наведении курсора мыши на число - состояние снежного покрова и степень покрытия местности в баллах.